Regional Weather Roundup
Issued by NWS

Home | Current Version | Previous Version | Graphics & Text | Print | Product List | Glossary On
Versions: 1 2 3 4 5 6 7 8 9 10 11 12 13 14 15 16 17 18 19 20 21 22 23 24 25 26 27 28 29 30 31 32 33 34 35 36 37 38 39 40 41 42 43 44 45 46 47 48 49 50
000
ASUS43 KTOP 251308
RWRKS

WEATHER ROUNDUP FOR KANSAS
NATIONAL WEATHER SERVICE GOODLAND KS
800 AM CDT FRI JUL 25 2014

NOTE:  "FAIR" INDICATES FEW OR NO CLOUDS BELOW 12,000 FEET WITH NO
SIGNIFICANT WEATHER AND/OR OBSTRUCTIONS TO VISIBILITY.

KSZ001>006-013>018-027>032-041>047-251400-
NORTHWEST KANSAS

CITY           SKY/WX    TMP DP  RH WIND       PRES   REMARKS
GOODLAND       MOSUNNY   72  57  59 W5        29.93R
HAYS           SUNNY     57  57 100 SW14      29.86R
HILL CITY      MOSUNNY   82  61  48 SW16G26   29.82S
RUSSELL        SUNNY     78  66  66 S21G29    29.83S
$$

KSZ061>065-074>080-084>089-251400-
SOUTHWEST KANSAS

CITY           SKY/WX    TMP DP  RH WIND       PRES   REMARKS
DODGE CITY     SUNNY     77  63  61 SW13      29.92S
ELKHART          N/A     75  57  53 SW16        N/A
GARDEN CITY    SUNNY     75  61  61 SW16G23   29.90F
GREAT BEND     SUNNY     79  66  65 SW20      29.86S
LIBERAL        SUNNY     77  61  57 SW18      29.97S
PRATT          SUNNY     77  64  65 SW15      29.92S
$$

KSZ066>073-081>083-090>101-251400-
SOUTHEAST KANSAS

CITY           SKY/WX    TMP DP  RH WIND       PRES   REMARKS
CHANUTE        SUNNY     75  70  84 S16G25    29.94S
COFFEYVILLE    SUNNY     75  71  87 S13       29.97R
HUTCHINSON     SUNNY     77  68  73 S12       29.89F
MEDICINE LODGE   N/A     76  69  79 S6        29.92S
NEWTON         SUNNY     75  64  69 S17       29.94S
PARSONS        SUNNY     75  70  84 S9        29.97R
WICHITA INTL   MOSUNNY   75  68  78 S13       29.92R
WICHITA JABRA  SUNNY     77  68  73 S18       29.92R
WICHITA MCCONL SUNNY     75  71  87 S15       29.93R
WINFIELD       SUNNY     76  70  82 S15       29.95R
$$

KSZ007>012-019>026-033>040-048>060-102>105-251400-
NORTHEAST KANSAS

CITY           SKY/WX    TMP DP  RH WIND       PRES   REMARKS
CONCORDIA      SUNNY     81  69  67 SW20G29   29.81R
EMPORIA        MOSUNNY   75  69  81 S8        29.91R
LAWRENCE       PTSUNNY   76  70  82 SE9       29.89S
MANHATTAN      SUNNY     78  69  73 SW14      29.83R
MARYSVILLE     MOSUNNY   81  70  69 S14G21    29.80R
OLATHE IND     CLOUDY    74  69  85 SE10      29.93R
OLATHE EXE     CLOUDY    73  68  84 SE10      29.93R
SALINA         SUNNY     80  68  66 S20G29    29.84S
TOPEKA BILLARD PTSUNNY   79  71  76 SE7       29.87R
TOPEKA FORBES  CLOUDY    78  69  73 S13       29.87S
$$


USA.gov is the U.S. government's official web portal to all federal, state and local government web resources and services.